EA1QW Weather Reports


Display with metric or nautical units.
time (UTC)temp
F
wind
direction
speed
MPH
gust
MPH
rain 1hr
in
rain 24hr
in
rain mn
in
humidity
%
barometer
mb
20260831015011 64 289 0.0 0.0 0.00 0.28 0.00 89 1020.1
20260831014539 64 289 0.0 0.0 0.00 0.28 0.00 89 1020.0
20260831014026 64 289 0.0 0.0 0.00 0.28 0.00 88 1020.1
20260831013514 64 289 0.0 0.0 0.00 0.28 0.00 88 1019.9
20260831013022 64 289 0.0 0.0 0.00 0.28 0.00 88 1020.0
20260831012532 64 289 0.0 0.0 0.00 0.28 0.00 88 1020.1
20260831012038 64 289 0.0 0.0 0.00 0.28 0.00 88 1020.1
20260831011525 65 289 0.0 0.0 0.00 0.28 0.00 88 1020.1
20260831011013 65 289 0.0 0.0 0.00 0.28 0.00 87 1020.2
20260831010542 65 289 0.0 0.0 0.00 0.28 0.00 87 1020.2
20260831010009 65 289 0.0 0.0 0.00 0.28 0.00 86 1020.2
20260831005518 65 289 0.0 0.0 0.00 0.28 0.00 86 1020.3
20260831005047 66 289 0.0 0.0 0.00 0.28 0.00 86 1020.3
20260831004513 66 289 0.0 0.0 0.00 0.28 0.00 85 1020.3
20260831004021 66 289 0.0 0.0 0.00 0.28 0.00 85 1020.4
20260831003509 66 289 0.0 0.0 0.00 0.28 0.00 85 1020.4
20260831003014 66 289 0.0 0.0 0.00 0.28 0.00 85 1020.5
20260831002522 66 289 0.0 0.0 0.00 0.28 0.00 85 1020.4
20260831002009 66 289 0.0 0.0 0.00 0.28 0.00 85 1020.5
20260831001538 66 289 0.0 0.0 0.00 0.28 0.00 85 1020.4
20260831001025 66 289 0.0 3.0 0.00 0.28 0.00 85 1020.4
20260831000513 66 289 1.0 3.0 0.00 0.28 0.00 85 1020.4
20260831000021 66 289 0.0 0.0 0.00 0.28 0.06 85 1020.6
20260830235509 66 289 0.0 0.0 0.00 0.28 0.06 85 1020.7
20260830235017 66 289 0.0 0.0 0.00 0.28 0.06 85 1020.6
20260830234525 66 289 0.0 1.0 0.00 0.28 0.06 85 1020.6
20260830234013 66 289 0.0 7.0 0.00 0.28 0.06 86 1020.6
20260830233521 66 289 2.0 7.0 0.00 0.28 0.06 86 1020.7
20260830233010 66 299 1.0 3.0 0.00 0.28 0.06 86 1020.7
20260830232517 66 300 0.0 0.0 0.00 0.28 0.06 86 1020.7
20260830232025 66 300 0.0 0.0 0.00 0.28 0.06 86 1020.7
20260830231535 66 300 0.0 0.0 0.00 0.28 0.06 86 1020.7
20260830231022 66 300 0.0 0.0 0.00 0.28 0.06 87 1020.8
20260830230510 66 300 0.0 1.0 0.00 0.28 0.06 87 1020.7
20260830230018 66 300 0.0 1.0 0.00 0.28 0.06 87 1020.7
20260830225525 66 300 0.0 0.0 0.00 0.28 0.06 87 1020.8
20260830225013 66 300 0.0 0.0 0.00 0.28 0.06 87 1020.7
20260830224542 66 300 0.0 0.0 0.00 0.28 0.06 87 1020.8
20260830224010 66 300 0.0 0.0 0.00 0.28 0.06 87 1020.7
20260830223518 66 300 0.0 0.0 0.00 0.28 0.06 87 1020.6
20260830223010 66 300 0.0 0.0 0.00 0.28 0.06 87 1020.6
20260830222519 66 300 0.0 0.0 0.00 0.28 0.06 87 1020.5
20260830222022 66 300 0.0 0.0 0.00 0.28 0.06 87 1020.6
20260830221514 66 300 0.0 0.0 0.00 0.28 0.06 87 1020.5
20260830221022 66 300 0.0 0.0 0.00 0.28 0.06 87 1020.5
20260830220511 66 300 0.0 0.0 0.00 0.28 0.06 87 1020.4
20260830220017 66 300 0.0 0.0 0.00 0.31 0.06 87 1020.4
20260830215525 66 300 0.0 0.0 0.00 0.31 0.06 87 1020.3
20260830215013 66 300 0.0 0.0 0.00 0.31 0.06 87 1020.4
20260830214542 66 300 0.0 0.0 0.00 0.31 0.06 87 1020.3
20260830214009 66 300 0.0 0.0 0.00 0.31 0.06 86 1020.3
20260830213517 66 300 0.0 0.0 0.00 0.31 0.06 86 1020.3
20260830213046 66 300 0.0 0.0 0.00 0.31 0.06 86 1020.2
20260830212513 66 300 0.0 0.0 0.00 0.31 0.06 85 1020.1
20260830212039 66 300 0.0 0.0 0.00 0.31 0.06 85 1020.1
20260830211526 66 300 0.0 0.0 0.00 0.31 0.06 84 1020.1
20260830211014 67 300 0.0 0.0 0.00 0.31 0.06 84 1020.0
20260830210522 67 300 0.0 0.0 0.00 0.31 0.06 83 1020.1
20260830210031 67 300 0.0 0.0 0.00 0.39 0.06 83 1020.0
20260830205518 67 300 0.0 0.0 0.00 0.39 0.06 82 1019.9
20260830205007 67 300 0.0 0.0 0.00 0.39 0.06 81 1019.8
20260830204515 67 300 0.0 0.0 0.00 0.39 0.06 81 1019.9
20260830204042 67 300 0.0 0.0 0.00 0.39 0.06 81 1019.7
20260830203509 68 300 0.0 0.0 0.00 0.39 0.06 81 1019.7
20260830203017 68 300 0.0 0.0 0.00 0.39 0.06 81 1019.7
20260830202526 68 300 0.0 0.0 0.00 0.39 0.06 80 1019.6
20260830202012 68 300 0.0 0.0 0.00 0.39 0.06 80 1019.6
20260830201520 68 300 0.0 0.0 0.00 0.39 0.06 79 1019.5
20260830201030 68 300 0.0 0.0 0.00 0.39 0.06 79 1019.4
20260830200516 68 300 0.0 0.0 0.00 0.39 0.06 79 1019.4
20260830200024 68 300 0.0 0.0 0.00 0.39 0.06 79 1019.3
20260830195512 68 300 0.0 0.0 0.00 0.39 0.06 78 1019.3
20260830195018 69 300 0.0 0.0 0.00 0.39 0.06 78 1019.2
20260830194527 69 300 0.0 0.0 0.00 0.39 0.06 78 1019.1
20260830194036 69 300 0.0 0.0 0.00 0.39 0.06 78 1019.0
20260830193524 69 300 0.0 0.0 0.00 0.39 0.06 78 1019.0
20260830193012 69 300 0.0 0.0 0.00 0.39 0.06 78 1018.9
20260830192520 69 300 0.0 1.0 0.00 0.39 0.06 78 1018.8
20260830192008 69 300 0.0 2.0 0.00 0.39 0.06 78 1018.8
20260830191517 69 300 0.0 2.0 0.00 0.39 0.06 78 1018.7
20260830191045 70 300 0.0 3.0 0.00 0.39 0.06 78 1018.6
20260830190533 70 300 1.0 5.0 0.00 0.39 0.06 78 1018.6
20260830190020 70 300 0.0 5.0 0.00 0.39 0.06 77 1018.6
20260830185508 70 302 1.0 4.0 0.00 0.39 0.06 77 1018.5
20260830185016 70 302 1.0 5.0 0.00 0.39 0.06 77 1018.5
20260830184525 71 305 1.0 5.0 0.00 0.39 0.06 76 1018.5
20260830184013 71 305 1.0 4.0 0.00 0.39 0.06 76 1018.5
20260830183543 71 305 1.0 5.0 0.00 0.39 0.06 76 1018.4
20260830183010 71 305 1.0 5.0 0.00 0.39 0.06 75 1018.4
20260830182518 71 296 0.0 7.0 0.00 0.39 0.06 75 1018.4
20260830182028 71 296 3.0 8.0 0.00 0.39 0.06 75 1018.3
20260830181514 72 299 1.0 8.0 0.00 0.39 0.06 75 1018.3
20260830181020 72 291 3.0 8.0 0.00 0.39 0.06 74 1018.3
20260830180508 72 295 2.0 9.0 0.00 0.39 0.06 73 1018.3
20260830180015 72 299 4.0 9.0 0.00 0.39 0.06 72 1018.3
20260830175543 72 309 0.0 6.0 0.00 0.39 0.06 73 1018.3
20260830175010 72 306 2.0 8.0 0.00 0.39 0.06 72 1018.2
20260830174539 73 306 3.0 8.0 0.00 0.39 0.06 71 1018.2
20260830174027 73 265 4.0 8.0 0.00 0.39 0.06 71 1018.1
20260830173514 73 275 2.0 8.0 0.00 0.39 0.06 71 1018.0
20260830173040 73 290 2.0 8.0 0.00 0.39 0.06 71 1018.1
20260830172507 73 291 2.0 9.0 0.00 0.39 0.06 73 1018.0
20260830172015 73 5 3.0 9.0 0.00 0.39 0.06 73 1018.1
20260830171523 73 292 3.0 8.0 0.00 0.39 0.06 73 1018.0
20260830171011 73 355 1.0 8.0 0.00 0.39 0.06 74 1017.9
20260830170520 73 344 2.0 6.0 0.00 0.39 0.06 74 1017.9
20260830170029 73 355 2.0 9.0 0.00 0.39 0.06 73 1017.9
20260830165517 73 25 4.0 9.0 0.00 0.39 0.06 73 1017.9
20260830165025 73 355 3.0 9.0 0.00 0.39 0.06 73 1017.8
20260830164514 73 319 1.0 11.0 0.00 0.39 0.06 73 1017.8
20260830164020 73 328 4.0 11.0 0.00 0.39 0.06 73 1017.7
20260830163508 73 355 5.0 10.0 0.00 0.39 0.06 72 1017.6
20260830163016 73 340 3.0 9.0 0.00 0.39 0.06 72 1017.6
20260830162523 74 12 2.0 10.0 0.00 0.39 0.06 73 1017.5
20260830162031 73 19 5.0 10.0 0.00 0.39 0.06 72 1017.5
20260830161538 74 346 1.0 10.0 0.00 0.39 0.06 72 1017.4
20260830161026 73 307 2.0 9.0 0.00 0.39 0.06 72 1017.4
20260830160516 74 355 5.0 10.0 0.00 0.39 0.06 72 1017.4
20260830160023 74 314 3.0 10.0 0.00 0.39 0.06 72 1017.4
20260830155533 74 339 3.0 9.0 0.00 0.39 0.06 71 1017.4
20260830155019 74 336 2.0 9.0 0.00 0.39 0.06 71 1017.4
20260830154507 74 9 1.0 10.0 0.00 0.39 0.06 71 1017.4
20260830154015 74 286 2.0 13.0 0.00 0.39 0.06 71 1017.3
20260830153544 74 346 6.0 13.0 0.00 0.39 0.06 70 1017.3
20260830153011 74 321 3.0 10.0 0.00 0.39 0.06 69 1017.2
20260830152540 74 344 5.0 11.0 0.00 0.39 0.06 69 1017.1
20260830152008 74 304 3.0 11.0 0.00 0.39 0.06 69 1017.1
20260830151517 74 321 4.0 11.0 0.00 0.39 0.06 68 1017.1
20260830151025 74 277 4.0 12.0 0.00 0.39 0.06 69 1017.1
20260830150515 74 294 5.0 12.0 0.00 0.39 0.06 69 1017.2
20260830150023 74 329 4.0 11.0 0.00 0.39 0.06 70 1017.2
20260830145533 74 26 5.0 11.0 0.00 0.39 0.06 69 1017.2
20260830145021 74 331 3.0 9.0 0.00 0.39 0.06 70 1017.1
20260830144530 74 309 3.0 12.0 0.00 0.39 0.06 70 1017.1
20260830144015 74 329 3.0 12.0 0.00 0.39 0.06 70 1017.0
20260830143524 74 334 3.0 11.0 0.00 0.39 0.06 70 1017.1
20260830143010 74 322 3.0 11.0 0.00 0.39 0.06 70 1017.1
20260830142518 73 346 4.0 12.0 0.00 0.39 0.06 70 1017.1
20260830142027 74 339 4.0 12.0 0.00 0.39 0.06 70 1017.0
20260830141515 74 325 4.0 12.0 0.00 0.39 0.06 69 1017.2
20260830141024 74 355 6.0 12.0 0.00 0.39 0.06 68 1017.1
20260830140512 75 289 3.0 11.0 0.00 0.39 0.06 67 1017.1
20260830140041 75 335 4.0 11.0 0.00 0.39 0.06 68 1017.1
20260830135509 75 327 5.0 12.0 0.00 0.39 0.06 68 1017.1
20260830135016 75 355 4.0 12.0 0.00 0.39 0.06 67 1017.0
20260830134525 75 360 3.0 12.0 0.00 0.39 0.06 66 1017.2
20260830134013 75 355 3.0 10.0 0.00 0.39 0.06 67 1017.2
20260830133542 74 284 3.0 10.0 0.00 0.39 0.06 68 1017.2
20260830133009 74 286 3.0 12.0 0.00 0.39 0.06 68 1017.1
20260830132518 73 306 3.0 12.0 0.00 0.39 0.06 67 1017.2
20260830132007 74 332 3.0 6.0 0.00 0.39 0.06 68 1017.1
20260830131516 73 347 1.0 9.0 0.00 0.39 0.06 70 1017.3
20260830131021 73 355 5.0 9.0 0.00 0.39 0.06 69 1017.3
20260830130510 73 296 2.0 7.0 0.00 0.39 0.06 69 1017.2
20260830130040 72 315 2.0 10.0 0.00 0.39 0.06 71 1017.3
20260830125509 72 5 4.0 10.0 0.00 0.39 0.06 70 1017.3
20260830125014 73 299 3.0 10.0 0.00 0.39 0.06 69 1017.3
20260830124523 73 355 3.0 10.0 0.00 0.39 0.06 69 1017.5
20260830124012 73 15 2.0 8.0 0.00 0.39 0.06 69 1017.4
20260830123520 73 333 4.0 11.0 0.00 0.39 0.06 68 1017.4
20260830123013 73 33 4.0 11.0 0.00 0.39 0.06 68 1017.4
20260830122522 73 304 4.0 12.0 0.00 0.39 0.06 67 1017.2
20260830122031 74 300 7.0 12.0 0.00 0.39 0.06 67 1017.3
20260830121518 74 292 6.0 12.0 0.00 0.39 0.06 66 1017.4
20260830121008 74 284 6.0 12.0 0.00 0.39 0.06 66 1017.2
20260830120516 74 285 4.0 12.0 0.00 0.39 0.06 67 1017.2
20260830120024 74 294 7.0 12.0 0.00 0.39 0.06 66 1017.3
20260830115513 73 304 5.0 12.0 0.00 0.39 0.06 69 1017.4
20260830115040 73 270 5.0 12.0 0.00 0.39 0.06 69 1017.4
20260830114508 73 288 6.0 14.0 0.00 0.39 0.06 69 1017.3
20260830114037 72 277 7.0 14.0 0.00 0.39 0.06 69 1017.4
20260830113546 72 282 5.0 13.0 0.00 0.39 0.06 70 1017.5
20260830113014 72 286 5.0 10.0 0.00 0.39 0.06 69 1017.5
20260830112523 72 345 5.0 12.0 0.00 0.39 0.06 69 1017.5
20260830112012 71 317 6.0 13.0 0.00 0.39 0.06 70 1017.4
20260830111520 71 291 6.0 13.0 0.00 0.39 0.06 70 1017.5
20260830111006 71 277 4.0 13.0 0.00 0.39 0.06 70 1017.5
20260830110515 71 309 6.0 13.0 0.00 0.39 0.06 70 1017.4
20260830110045 71 293 5.0 13.0 0.04 0.39 0.06 69 1017.5
20260830105512 71 265 3.0 9.0 0.04 0.39 0.06 71 1017.5
20260830105019 71 296 4.0 11.0 0.04 0.39 0.06 71 1017.5
20260830104509 72 300 5.0 12.0 0.04 0.39 0.06 72 1017.5
20260830104036 72 307 3.0 11.0 0.04 0.39 0.06 72 1017.4
20260830103523 72 285 3.0 11.0 0.04 0.39 0.06 73 1017.5
20260830103012 71 300 2.0 13.0 0.04 0.39 0.06 74 1017.5
20260830102520 71 293 4.0 9.0 0.04 0.39 0.06 74 1017.4
20260830102009 71 313 5.0 9.0 0.04 0.39 0.06 74 1017.4
20260830101517 71 298 5.0 9.0 0.04 0.39 0.06 73 1017.3
20260830101007 71 293 6.0 9.0 0.04 0.39 0.06 74 1017.4
20260830100516 71 273 2.0 6.0 0.04 0.39 0.06 75 1017.3
20260830100021 71 272 0.0 3.0 0.00 0.35 0.05 75 1017.2
20260830095510 71 272 0.0 4.0 0.00 0.35 0.05 76 1017.3
20260830095016 70 272 1.0 6.0 0.00 0.35 0.05 76 1017.4
20260830094545 70 272 2.0 6.0 0.00 0.35 0.05 76 1017.2
20260830094012 70 269 2.0 4.0 0.00 0.35 0.05 77 1017.3
20260830093521 70 269 0.0 3.0 0.00 0.35 0.05 78 1017.3
20260830093007 70 269 0.0 4.0 0.00 0.35 0.05 79 1017.2
20260830092516 70 269 2.0 7.0 0.00 0.35 0.05 79 1017.3
20260830092025 70 268 2.0 6.0 0.00 0.35 0.05 79 1017.2
20260830091514 70 263 0.0 3.0 0.00 0.35 0.05 79 1017.2
20260830091022 69 263 2.0 6.0 0.00 0.35 0.05 79 1017.2
20260830090510 69 263 0.0 7.0 0.00 0.35 0.05 79 1017.2
20260830090017 69 263 1.0 7.0 0.00 0.35 0.05 81 1017.2
20260830085546 69 263 3.0 6.0 0.00 0.35 0.05 82 1017.1
20260830085013 69 263 0.0 6.0 0.00 0.35 0.05 84 1017.0
20260830084521 68 263 0.0 6.0 0.00 0.35 0.05 85 1017.0
20260830084029 68 263 0.0 1.0 0.00 0.35 0.05 84 1017.0
20260830083515 68 263 0.0 7.0 0.00 0.35 0.05 85 1017.1
20260830083045 68 263 0.0 8.0 0.00 0.35 0.05 86 1017.0
20260830082531 67 263 3.0 8.0 0.00 0.35 0.05 86 1017.1
20260830082018 67 262 2.0 6.0 0.00 0.35 0.05 88 1017.1
20260830081506 67 262 2.0 7.0 0.00 0.35 0.05 89 1017.0
20260830081014 67 262 1.0 7.0 0.00 0.35 0.05 90 1016.9
20260830080523 67 265 3.0 7.0 0.00 0.35 0.05 92 1016.9
20260830080034 66 265 1.0 6.0 0.00 0.35 0.05 95 1016.8
20260830075542 66 271 1.0 4.0 0.00 0.35 0.05 96 1016.7
20260830075009 66 271 0.0 4.0 0.00 0.35 0.05 97 1016.6
20260830074538 66 271 1.0 4.0 0.00 0.35 0.05 98 1016.5
20260830074025 66 271 0.0 7.0 0.00 0.35 0.05 98 1016.6
20260830073514 66 272 3.0 7.0 0.00 0.35 0.05 98 1016.4
20260830073023 66 276 1.0 6.0 0.00 0.35 0.05 99 1016.4
20260830072512 66 291 0.0 4.0 0.00 0.35 0.05 99 1016.4
20260830072020 66 291 1.0 4.0 0.00 0.35 0.05 99 1016.4
20260830071509 66 292 0.0 4.0 0.00 0.35 0.05 99 1016.4
20260830071015 66 292 1.0 3.0 0.00 0.35 0.05 99 1016.4
20260830070523 66 292 0.0 0.0 0.00 0.35 0.05 100 1016.5
20260830070011 66 292 0.0 2.0 0.00 0.35 0.05 100 1016.5
20260830065519 66 292 0.0 2.0 0.00 0.35 0.05 100 1016.4
20260830065027 66 292 0.0 2.0 0.00 0.35 0.05 100 1016.4
20260830064512 66 292 0.0 2.0 0.00 0.35 0.05 100 1016.4
20260830064016 66 292 0.0 0.0 0.00 0.35 0.05 100 1016.3
20260830063525 66 292 0.0 2.0 0.00 0.35 0.05 100 1016.3
20260830063034 66 292 0.0 2.0 0.00 0.35 0.05 100 1016.3
20260830062522 66 292 0.0 0.0 0.00 0.35 0.05 100 1016.3
20260830062010 66 292 0.0 0.0 0.00 0.35 0.05 100 1016.2
20260830061540 66 292 0.0 0.0 0.00 0.35 0.05 100 1016.2
20260830061007 66 292 0.0 0.0 0.00 0.35 0.05 100 1016.2
20260830060515 65 292 0.0 0.0 0.00 0.35 0.05 100 1016.2
20260830060024 65 292 0.0 1.0 0.00 0.35 0.05 100 1016.2
20260830055531 65 292 0.0 3.0 0.00 0.35 0.05 99 1016.1
20260830055015 66 292 0.0 3.0 0.00 0.35 0.05 99 1016.1
20260830054524 66 292 0.0 0.0 0.00 0.35 0.05 100 1016.0
20260830054032 65 292 0.0 0.0 0.00 0.35 0.05 100 1016.0
20260830053519 65 292 0.0 0.0 0.00 0.35 0.05 99 1016.0
20260830053008 65 292 0.0 2.0 0.00 0.35 0.05 99 1016.1
20260830052515 65 292 0.0 3.0 0.00 0.35 0.05 99 1016.1
20260830052044 65 292 0.0 3.0 0.00 0.35 0.05 99 1016.0
20260830051511 65 292 0.0 3.0 0.00 0.35 0.05 99 1016.1
20260830051020 65 292 0.0 0.0 0.00 0.35 0.05 99 1016.1
20260830050508 66 292 0.0 2.0 0.00 0.35 0.05 99 1016.1
20260830050035 66 292 0.0 3.0 0.00 0.35 0.05 99 1016.1
20260830045523 66 292 1.0 5.0 0.00 0.35 0.05 99 1016.1
20260830045011 66 292 1.0 5.0 0.00 0.35 0.05 99 1016.1
20260830044519 66 294 0.0 2.0 0.00 0.35 0.05 99 1016.2
20260830044025 66 294 1.0 2.0 0.00 0.35 0.05 100 1016.2
20260830043534 66 294 0.0 2.0 0.00 0.35 0.05 100 1016.1
20260830043020 66 294 0.0 2.0 0.00 0.35 0.05 100 1016.2
20260830042508 66 294 0.0 0.0 0.00 0.35 0.05 100 1016.1
20260830042013 66 294 0.0 1.0 0.00 0.35 0.05 100 1016.2
20260830041522 66 294 0.0 1.0 0.00 0.35 0.05 99 1016.1
20260830041010 66 294 0.0 0.0 0.00 0.35 0.05 100 1016.1
20260830040518 66 294 0.0 0.0 0.00 0.35 0.05 100 1016.1
20260830040006 66 294 0.0 0.0 0.00 0.35 0.05 100 1016.1
20260830035514 66 294 0.0 0.0 0.04 0.35 0.05 100 1016.2
20260830035023 66 294 0.0 0.0 0.08 0.35 0.05 100 1016.2
20260830034511 66 294 0.0 0.0 0.12 0.35 0.05 100 1016.3
20260830034019 66 294 0.0 0.0 0.12 0.35 0.05 99 1016.3
20260830033511 66 294 0.0 0.0 0.12 0.35 0.05 99 1016.3
20260830033018 66 294 0.0 0.0 0.12 0.35 0.05 99 1016.3
20260830032506 66 294 0.0 0.0 0.12 0.35 0.05 99 1016.4
20260830032035 66 294 0.0 0.0 0.16 0.35 0.05 99 1016.3
20260830031522 66 294 0.0 0.0 0.16 0.35 0.05 99 1016.3
20260830031010 66 294 0.0 0.0 0.16 0.35 0.05 99 1016.3
20260830030519 66 294 0.0 5.0 0.16 0.35 0.05 99 1016.3
20260830030047 66 294 2.0 5.0 0.16 0.35 0.05 99 1016.4
20260830025514 67 302 2.0 5.0 0.16 0.31 0.04 99 1016.5
20260830025019 67 306 1.0 3.0 0.12 0.28 0.03 99 1016.5
20260830024508 67 306 0.0 0.0 0.08 0.24 0.02 99 1016.5
20260830024016 67 306 0.0 0.0 0.08 0.24 0.02 99 1016.6
20260830023525 67 306 0.0 0.0 0.12 0.24 0.02 99 1016.5
20260830023012 67 306 0.0 0.0 0.12 0.24 0.02 99 1016.5
20260830022520 67 306 0.0 0.0 0.12 0.24 0.02 99 1016.6
20260830022009 67 306 0.0 0.0 0.08 0.20 0.02 99 1016.5
20260830021517 67 306 0.0 0.0 0.08 0.20 0.02 99 1016.5
20260830021024 67 306 0.0 0.0 0.08 0.20 0.02 99 1016.5
20260830020511 67 306 0.0 0.0 0.08 0.20 0.02 99 1016.4
20260830020019 67 306 0.0 2.0 0.04 0.16 0.01 99 1016.4
20260830015507 67 306 0.0 3.0 0.04 0.16 0.01 99 1016.4